SR9NCI Weather Reports


time (UTC)temp
C
wind
direction
speed
KPH
gust
KPH
rain 1hr
cm
rain 24hr
cm
rain mn
cm
humidity
%
barometer
mb
20260903163024 23 283 3.2 4.8 0.00 0.00 0.00
20260903162622 25 292 1.6 3.2 0.00 0.00 0.00
20260903162221 27 292 0.0 0.0 0.00 0.00 0.00
20260903161820 26 292 0.0 1.6 0.00 0.00 0.00
20260903161417 24 292 1.6 1.6 0.00 0.00 0.00
20260903161016 24 292 0.0 0.0 0.00 0.00 0.00
20260903160614 25 292 0.0 3.2 0.00 0.00 0.00
20260903160213 23 292 0.0 1.6 0.00 0.00 0.00
20260903155811 23 292 0.0 1.6 0.00 0.00 0.00
20260903155410 23 292 0.0 3.2 0.00 0.00 0.00
20260903155001 23 292 1.6 3.2 0.00 0.00 0.00
20260903154600 23 292 0.0 1.6 0.00 0.00 0.00
20260903154157 23 292 0.0 0.0 0.00 0.00 0.00
20260903153757 23 292 0.0 3.2 0.00 0.00 0.00
20260903153355 23 292 1.6 3.2 0.00 0.00 0.00
20260903152954 23 292 3.2 4.8 0.00 0.00 0.00
20260903152551 23 292 1.6 6.4 0.00 0.00 0.00
20260903152150 23 305 3.2 6.4 0.00 0.00 0.00
20260903151749 23 299 4.8 6.4 0.00 0.00 0.00
20260903151347 23 292 3.2 3.2 0.00 0.00 0.00
20260903150939 23 270 3.2 4.8 0.00 0.00 0.00
20260903150536 23 270 3.2 4.8 0.00 0.00 0.00
20260903150135 23 270 4.8 8.0 0.00 0.00 0.00
20260903145734 24 315 0.0 3.2 0.00 0.00 0.00
20260903145332 23 315 1.6 3.2 0.00 0.00 0.00
20260903144930 23 315 1.6 6.4 0.00 0.00 0.00
20260903144528 23 312 1.6 4.8 0.00 0.00 0.00
20260903144127 23 305 4.8 8.0 0.00 0.00 0.00
20260903143726 23 315 3.2 4.8 0.00 0.00 0.00
20260903143323 23 270 1.6 3.2 0.00 0.00 0.00
20260903142915 23 271 3.2 4.8 0.00 0.00 0.00
20260903142513 22 288 6.4 9.7 0.00 0.00 0.00
20260903142113 23 313 3.2 6.4 0.00 0.00 0.00
20260903141710 23 289 3.2 6.4 0.00 0.00 0.00
20260903141309 23 278 8.0 12.9 0.00 0.00 0.00
20260903140908 23 290 6.4 12.9 0.00 0.00 0.00
20260903140506 23 298 6.4 12.9 0.00 0.00 0.00
20260903140105 23 279 9.7 17.7 0.00 0.00 0.00
20260903135703 23 316 6.4 12.9 0.00 0.00 0.00
20260903135301 23 0 4.8 6.4 0.00 0.00 0.00
20260903134853 24 300 4.8 14.5 0.00 0.00 0.00
20260903134451 23 287 6.4 9.7 0.00 0.00 0.00
20260903134049 24 304 4.8 9.7 0.00 0.00 0.00
20260903133648 23 282 3.2 4.8 0.00 0.00 0.00
20260903133246 23 255 3.2 6.4 0.00 0.00 0.00
20260903132845 24 291 3.2 6.4 0.00 0.00 0.00
20260903132442 24 276 1.6 4.8 0.00 0.00 0.00
20260903132040 24 276 3.2 6.4 0.00 0.00 0.00
20260903131639 23 292 4.8 6.4 0.00 0.00 0.00
20260903131237 23 324 3.2 4.8 0.00 0.00 0.00
20260903130828 23 279 6.4 8.0 0.00 0.00 0.00
20260903130426 23 284 4.8 9.7 0.00 0.00 0.00
20260903130025 23 314 3.2 4.8 0.00 0.00 0.00
20260903125624 23 321 3.2 8.0 0.00 0.00 0.00
20260903125222 22 338 0.0 3.2 0.00 0.00 0.00
20260903124820 22 335 3.2 9.7 0.00 0.00 0.00
20260903124418 22 314 3.2 6.4 0.00 0.00 0.00
20260903124017 22 323 3.2 8.0 0.00 0.00 0.00
20260903123616 22 310 4.8 8.0 0.00 0.00 0.00
20260903123213 22 328 3.2 6.4 0.00 0.00 0.00
20260903122805 22 341 4.8 8.0 0.00 0.00 0.00
20260903122403 22 315 3.2 4.8 0.00 0.00 0.00
20260903122002 22 312 3.2 4.8 0.00 0.00 0.00
20260903121600 22 290 6.4 9.7 0.00 0.00 0.00
20260903121158 22 300 6.4 11.3 0.00 0.00 0.00
20260903120757 22 315 4.8 9.7 0.00 0.00 0.00
20260903120355 22 305 4.8 9.7 0.00 0.00 0.00
20260903115953 22 301 9.7 14.5 0.00 0.00 0.00
20260903115552 22 332 4.8 6.4 0.00 0.00 0.00
20260903115150 22 306 6.4 12.9 0.00 0.00 0.00
20260903114743 22 322 6.4 14.5 0.00 0.00 0.00
20260903114341 22 303 11.3 14.5 0.00 0.00 0.00
20260903113939 23 295 11.3 19.3 0.00 0.00 0.00
20260903112734 24 278 9.7 14.5 0.00 0.00 0.00
20260903112331 25 268 11.3 16.1 0.00 0.00 0.00
20260903111930 25 261 11.3 16.1 0.00 0.00 0.00
20260903111529 25 244 14.5 17.7 0.00 0.00 0.00
20260903111127 25 209 14.5 22.5 0.00 0.00 0.00
20260903110718 25 232 12.9 22.5 0.00 0.00 0.00
20260903110316 24 260 8.0 11.3 0.00 0.00 0.00
20260903105915 25 228 9.7 14.5 0.00 0.00 0.00
20260903105514 25 252 11.3 16.1 0.00 0.00 0.00
20260903105111 25 213 11.3 22.5 0.00 0.00 0.00
20260903104710 25 232 4.8 11.3 0.00 0.00 0.00
20260903104308 23 188 6.4 12.9 0.00 0.00 0.00
20260903103506 25 216 6.4 9.7 0.00 0.00 0.00
20260903103103 25 224 4.8 8.0 0.00 0.00 0.00
20260903102655 24 199 6.4 14.5 0.00 0.00 0.00
20260903102254 24 231 3.2 8.0 0.00 0.00 0.00
20260903101853 23 228 4.8 8.0 0.00 0.00 0.00
20260903101450 23 217 8.0 14.5 0.00 0.00 0.00
20260903101049 24 213 9.7 14.5 0.00 0.00 0.00
20260903100648 23 230 6.4 9.7 0.00 0.00 0.00
20260903095844 24 260 4.8 11.3 0.00 0.00 0.00
20260903095443 23 237 4.8 12.9 0.00 0.00 0.00
20260903095041 23 202 4.8 9.7 0.00 0.00 0.00
20260903094633 23 263 6.4 9.7 0.00 0.00 0.00
20260903094230 23 315 1.6 4.8 0.00 0.00 0.00
20260903093829 23 311 3.2 8.0 0.00 0.00 0.00
20260903093428 23 264 4.8 9.7 0.00 0.00 0.00
20260903093026 23 263 6.4 9.7 0.00 0.00 0.00
20260903092625 23 263 6.4 11.3 0.00 0.00 0.00
20260903092222 23 267 9.7 14.5 0.00 0.00 0.00
20260903091821 22 275 6.4 9.7 0.00 0.00 0.00
20260903091420 23 270 3.2 9.7 0.00 0.00 0.00
20260903091019 23 263 4.8 8.0 0.00 0.00 0.00
20260903090609 23 254 4.8 12.9 0.00 0.00 0.00
20260903090207 22 260 9.7 14.5 0.00 0.00 0.00
20260903085806 23 220 11.3 16.1 0.00 0.00 0.00
20260903085405 23 217 8.0 12.9 0.00 0.00 0.00
20260903085002 22 238 6.4 12.9 0.00 0.00 0.00
20260903084601 23 221 8.0 14.5 0.00 0.00 0.00
20260903084200 23 220 4.8 6.4 0.00 0.00 0.00
20260903083759 23 183 3.2 6.4 0.00 0.00 0.00
20260903083357 23 195 4.8 9.7 0.00 0.00 0.00
20260903082955 22 218 6.4 9.7 0.00 0.00 0.00
20260903082547 22 206 6.4 9.7 0.00 0.00 0.00
20260903082145 23 202 3.2 6.4 0.00 0.00 0.00
20260903081744 22 217 3.2 8.0 0.00 0.00 0.00
20260903081342 22 194 3.2 8.0 0.00 0.00 0.00
20260903080940 22 157 3.2 8.0 0.00 0.00 0.00
20260903080539 22 157 1.6 4.8 0.00 0.00 0.00
20260903080137 22 157 3.2 6.4 0.00 0.00 0.00
20260903075735 22 157 1.6 3.2 0.00 0.00 0.00
20260903075334 22 157 3.2 6.4 0.00 0.00 0.00
20260903074932 22 157 4.8 6.4 0.00 0.00 0.00
20260903074524 22 157 3.2 4.8 0.00 0.00 0.00
20260903074121 22 157 3.2 6.4 0.00 0.00 0.00
20260903073720 22 128 4.8 6.4 0.00 0.00 0.00
20260903073319 22 135 4.8 8.0 0.00 0.00 0.00
20260903072917 22 135 4.8 9.7 0.00 0.00 0.00
20260903072515 21 135 3.2 6.4 0.00 0.00 0.00
20260903072113 21 144 3.2 6.4 0.00 0.00 0.00
20260903071712 21 158 3.2 6.4 0.00 0.00 0.00
20260903071311 21 170 6.4 9.7 0.00 0.00 0.00
20260903070500 21 132 6.4 9.7 0.00 0.00 0.00
20260903070058 21 135 3.2 6.4 0.00 0.00 0.00
20260903065657 21 135 6.4 9.7 0.00 0.00 0.00
20260903065256 21 129 4.8 9.7 0.00 0.00 0.00
20260903064853 21 132 8.0 12.9 0.00 0.00 0.00
20260903064452 21 135 9.7 14.5 0.00 0.00 0.00
20260903064050 21 139 9.7 12.9 0.00 0.00 0.00
20260903063247 21 149 6.4 12.9 0.00 0.00 0.00
20260903062845 20 146 9.7 14.5 0.00 0.00 0.00
20260903062437 20 137 8.0 14.5 0.00 0.00 0.00
20260903062035 20 129 4.8 9.7 0.00 0.00 0.00
20260903061633 20 134 6.4 9.7 0.00 0.00 0.00
20260903061232 20 139 8.0 12.9 0.00 0.00 0.00
20260903060830 20 152 8.0 11.3 0.00 0.00 0.00
20260903060429 20 140 4.8 8.0 0.00 0.00 0.00
20260903060028 19 146 6.4 11.3 0.00 0.00 0.00
20260903055625 18 133 4.8 8.0 0.00 0.00 0.00
20260903055224 18 131 4.8 8.0 0.00 0.00 0.00
20260903054823 18 141 6.4 12.9 0.00 0.00 0.00
20260903054702 18 154 6.4 12.9 0.00 0.00 0.00
20260903054415 18 154 6.4 12.9 0.00 0.00 0.00
20260903054012 18 157 6.4 9.7 0.00 0.00 0.00
20260903053611 18 148 8.0 12.9 0.00 0.00 0.00
20260903053210 18 134 6.4 9.7 0.00 0.00 0.00
20260903052808 18 131 4.8 9.7 0.00 0.00 0.00
20260903052406 18 139 1.6 6.4 0.00 0.00 0.00
20260903052004 17 157 4.8 8.0 0.00 0.00 0.00
20260903051602 17 139 3.2 8.0 0.00 0.00 0.00
20260903051201 17 135 4.8 9.7 0.00 0.00 0.00
20260903050758 17 154 4.8 9.7 0.00 0.00 0.00
20260903050350 17 141 4.8 8.0 0.00 0.00 0.00
20260903045949 17 143 4.8 9.7 0.00 0.00 0.00
20260903045548 17 133 4.8 11.3 0.00 0.00 0.00
20260903045147 17 137 4.8 9.7 0.00 0.00 0.00
20260903044744 17 143 6.4 8.0 0.00 0.00 0.00
20260903044343 16 148 4.8 11.3 0.00 0.00 0.00
20260903043941 16 157 6.4 9.7 0.00 0.00 0.00
20260903043540 16 147 4.8 8.0 0.00 0.00 0.00
20260903043137 16 135 3.2 4.8 0.00 0.00 0.00
20260903042736 16 135 3.2 6.4 0.00 0.00 0.00
20260903042328 16 135 3.2 8.0 0.00 0.00 0.00
20260903041926 15 111 0.0 1.6 0.00 0.00 0.00
20260903041524 15 111 1.6 3.2 0.00 0.00 0.00
20260903041123 15 111 3.2 4.8 0.00 0.00 0.00
20260903040721 15 111 1.6 3.2 0.00 0.00 0.00
20260903040320 15 111 1.6 3.2 0.00 0.00 0.00
20260903035917 16 129 3.2 4.8 0.00 0.00 0.00
20260903035516 16 135 1.6 4.8 0.00 0.00 0.00
20260903035115 16 135 4.8 8.0 0.00 0.00 0.00
20260903034713 16 151 6.4 8.0 0.00 0.00 0.00
20260903034305 16 135 3.2 4.8 0.00 0.00 0.00
20260903033902 17 136 4.8 8.0 0.00 0.00 0.00
20260903033501 16 145 6.4 8.0 0.00 0.00 0.00
20260903033100 16 153 4.8 9.7 0.00 0.00 0.00
20260903032658 16 148 3.2 6.4 0.00 0.00 0.00
20260903032256 17 140 4.8 9.7 0.00 0.00 0.00
20260903031854 16 132 3.2 6.4 0.00 0.00 0.00
20260903031453 16 136 6.4 9.7 0.00 0.00 0.00
20260903031052 17 136 6.4 11.3 0.00 0.00 0.00
20260903030649 17 152 8.0 11.3 0.00 0.00 0.00
20260903030241 16 135 3.2 6.4 0.00 0.00 0.00
20260903025839 16 151 3.2 4.8 0.00 0.00 0.00
20260903025438 16 157 4.8 8.0 0.00 0.00 0.00
20260903025036 16 157 3.2 6.4 0.00 0.00 0.00
20260903024635 17 141 4.8 8.0 0.00 0.00 0.00
20260903024234 17 152 4.8 8.0 0.00 0.00 0.00
20260903023832 17 143 6.4 9.7 0.00 0.00 0.00
20260903023431 16 152 6.4 14.5 0.00 0.00 0.00
20260903023029 16 151 4.8 9.7 0.00 0.00 0.00
20260903022627 16 135 3.2 6.4 0.00 0.00 0.00
20260903022219 16 135 3.2 6.4 0.00 0.00 0.00
20260903021817 16 135 1.6 4.8 0.00 0.00 0.00
20260903021415 16 135 1.6 3.2 0.00 0.00 0.00
20260903020612 17 111 3.2 4.8 0.00 0.00 0.00
20260903020211 16 111 4.8 4.8 0.00 0.00 0.00
20260903015808 16 135 3.2 6.4 0.00 0.00 0.00
20260903015407 16 139 4.8 8.0 0.00 0.00 0.00
20260903015006 16 135 3.2 3.2 0.00 0.00 0.00
20260903014604 16 151 3.2 4.8 0.00 0.00 0.00
20260903014155 16 180 1.6 4.8 0.00 0.00 0.00
20260903013753 17 180 3.2 4.8 0.00 0.00 0.00
20260903013352 17 180 4.8 6.4 0.00 0.00 0.00
20260903012951 17 180 3.2 6.4 0.00 0.00 0.00
20260903012549 17 182 4.8 6.4 0.00 0.00 0.00
20260903012147 17 217 3.2 6.4 0.00 0.00 0.00
20260903011745 18 180 6.4 11.3 0.00 0.00 0.00
20260903010943 18 150 3.2 6.4 0.00 0.00 0.00
20260903010540 17 140 3.2 6.4 0.00 0.00 0.00
20260903010132 17 170 3.2 6.4 0.00 0.00 0.00
20260903005730 17 180 3.2 6.4 0.00 0.00 0.00
20260903005329 18 180 1.6 3.2 0.00 0.00 0.00
20260903004927 17 157 1.6 3.2 0.00 0.00 0.00
20260903004525 17 157 1.6 6.4 0.00 0.00 0.00
20260903004124 18 158 4.8 6.4 0.00 0.00 0.00
20260903003723 18 209 3.2 4.8 0.00 0.00 0.00
20260903003320 17 225 1.6 4.8 0.00 0.00 0.00
20260903002919 18 248 1.6 4.8 0.00 0.00 0.00
20260903002518 17 262 4.8 6.4 0.00 0.00 0.00
20260903002110 17 288 1.6 4.8 0.00 0.00 0.00
20260903001708 15 292 1.6 3.2 0.00 0.00 0.00
20260903001305 15 292 1.6 3.2 0.00 0.00 0.00
20260903000904 16 288 4.8 8.0 0.00 0.00 0.00
20260903000502 16 180 1.6 4.8 0.00 0.00 0.00
20260902235658 16 180 1.6 3.2 0.00 0.00 0.00
20260902235257 16 180 1.6 6.4 0.00 0.00 0.00
20260902234856 17 157 3.2 6.4 0.00 0.00 0.00
20260902234454 18 157 4.8 8.0 0.00 0.00 0.00
20260902234045 18 152 4.8 9.7 0.00 0.00 0.00
20260902233643 18 138 4.8 6.4 0.00 0.00 0.00
20260902233242 18 146 4.8 8.0 0.00 0.00 0.00
20260902232841 18 153 6.4 11.3 0.00 0.00 0.00
20260902232438 18 150 8.0 12.9 0.00 0.00 0.00
20260902232038 18 148 6.4 12.9 0.00 0.00 0.00
20260902231635 18 133 6.4 11.3 0.00 0.00 0.00
20260902231234 18 150 8.0 12.9 0.00 0.00 0.00
20260902230833 18 148 6.4 9.7 0.00 0.00 0.00
20260902230022 18 151 6.4 11.3 0.00 0.00 0.00
20260902225620 17 157 4.8 6.4 0.00 0.00 0.00
20260902225219 17 157 4.8 6.4 0.00 0.00 0.00
20260902224816 17 154 6.4 8.0 0.00 0.00 0.00
20260902224415 18 157 4.8 8.0 0.00 0.00 0.00
20260902224013 18 148 4.8 6.4 0.00 0.00 0.00
20260902223612 18 152 6.4 11.3 0.00 0.00 0.00
20260902223209 18 152 8.0 12.9 0.00 0.00 0.00
20260902222809 17 147 6.4 9.7 0.00 0.00 0.00
20260902222406 17 142 6.4 9.7 0.00 0.00 0.00
20260902221958 18 154 4.8 8.0 0.00 0.00 0.00
20260902221555 18 143 8.0 11.3 0.00 0.00 0.00
20260902221154 18 148 8.0 16.1 0.00 0.00 0.00
20260902220753 17 154 6.4 9.7 0.00 0.00 0.00
20260902220352 16 157 3.2 6.4 0.00 0.00 0.00
20260902215951 17 157 4.8 8.0 0.00 0.00 0.00
20260902215548 17 141 4.8 8.0 0.00 0.00 0.00
20260902215147 18 137 6.4 8.0 0.00 0.00 0.00
20260902214746 18 151 6.4 11.3 0.00 0.00 0.00
20260902214344 18 152 8.0 12.9 0.00 0.00 0.00
20260902213935 18 156 6.4 9.7 0.00 0.00 0.00
20260902213533 18 163 9.7 12.9 0.00 0.00 0.00
20260902213132 18 157 4.8 6.4 0.00 0.00 0.00
20260902212731 18 166 4.8 8.0 0.00 0.00 0.00
20260902212328 18 178 4.8 8.0 0.00 0.00 0.00
20260902211927 18 180 4.8 9.7 0.00 0.00 0.00
20260902211525 18 157 4.8 8.0 0.00 0.00 0.00
20260902211124 18 157 6.4 11.3 0.00 0.00 0.00
20260902210722 18 157 4.8 6.4 0.00 0.00 0.00
20260902210320 18 157 4.8 6.4 0.00 0.00 0.00
20260902205912 18 157 4.8 6.4 0.00 0.00 0.00
20260902205510 18 157 3.2 8.0 0.00 0.00 0.00
20260902205109 19 157 6.4 11.3 0.00 0.00 0.00
20260902204707 18 156 4.8 9.7 0.00 0.00 0.00
20260902204305 18 135 1.6 3.2 0.00 0.00 0.00
20260902203904 18 135 3.2 6.4 0.00 0.00 0.00
20260902203503 18 146 3.2 6.4 0.00 0.00 0.00
20260902203101 19 140 3.2 6.4 0.00 0.00 0.00
20260902202700 19 150 3.2 6.4 0.00 0.00 0.00
20260902202258 18 157 3.2 6.4 0.00 0.00 0.00
20260902201850 18 157 1.6 4.8 0.00 0.00 0.00
20260902201046 19 135 3.2 8.0 0.00 0.00 0.00
20260902200243 19 135 3.2 6.4 0.00 0.00 0.00
20260902195841 20 157 6.4 9.7 0.00 0.00 0.00
20260902195439 20 144 8.0 12.9 0.00 0.00 0.00
20260902195038 20 136 3.2 8.0 0.00 0.00 0.00
20260902194637 19 129 3.2 3.2 0.00 0.00 0.00
20260902194235 19 69 3.2 3.2 0.00 0.00 0.00
20260902193826 19 21 3.2 4.8 0.00 0.00 0.00
20260902193424 19 21 1.6 3.2 0.00 0.00 0.00
20260902193023 19 21 0.0 3.2 0.00 0.00 0.00
20260902192622 19 21 0.0 0.0 0.00 0.00 0.00
20260902192219 19 21 0.0 0.0 0.00 0.00 0.00
20260902191818 20 21 0.0 0.0 0.00 0.00 0.00
20260902191417 19 21 0.0 0.0 0.00 0.00 0.00
20260902191016 20 21 0.0 3.2 0.00 0.00 0.00
20260902190613 20 21 1.6 3.2 0.00 0.00 0.00
20260902190212 20 21 0.0 3.2 0.00 0.00 0.00
20260902185804 20 21 1.6 1.6 0.00 0.00 0.00
20260902185402 20 21 1.6 3.2 0.00 0.00 0.00
20260902185000 19 21 0.0 3.2 0.00 0.00 0.00
20260902184559 20 21 3.2 4.8 0.00 0.00 0.00
20260902184157 20 21 0.0 3.2 0.00 0.00 0.00
20260902183756 20 21 0.0 1.6 0.00 0.00 0.00
20260902183354 20 21 0.0 0.0 0.00 0.00 0.00
20260902182952 20 21 1.6 3.2 0.00 0.00 0.00
20260902182551 20 0 1.6 3.2 0.00 0.00 0.00
20260902182149 20 0 0.0 1.6 0.00 0.00 0.00
20260902181741 20 345 1.6 1.6 0.00 0.00 0.00
20260902181338 21 338 0.0 0.0 0.00 0.00 0.00
20260902180937 21 338 0.0 1.6 0.00 0.00 0.00
20260902180536 21 338 1.6 3.2 0.00 0.00 0.00
20260902180134 21 338 1.6 3.2 0.00 0.00 0.00
20260902175732 21 21 1.6 3.2 0.00 0.00 0.00
20260902175330 21 21 0.0 3.2 0.00 0.00 0.00
20260902174929 21 21 0.0 3.2 0.00 0.00 0.00
20260902174528 21 21 1.6 3.2 0.00 0.00 0.00
20260902174125 21 20 4.8 6.4 0.00 0.00 0.00
20260902173717 21 21 3.2 4.8 0.00 0.00 0.00
20260902173316 22 21 3.2 6.4 0.00 0.00 0.00
20260902172915 22 21 3.2 6.4 0.00 0.00 0.00
20260902172514 22 21 4.8 6.4 0.00 0.00 0.00
20260902172111 22 21 6.4 8.0 0.00 0.00 0.00
20260902171710 22 21 4.8 8.0 0.00 0.00 0.00
20260902171308 22 21 4.8 8.0 0.00 0.00 0.00
20260902170907 22 346 4.8 8.0 0.00 0.00 0.00
20260902170505 22 338 3.2 6.4 0.00 0.00 0.00
20260902170103 23 338 1.6 3.2 0.00 0.00 0.00
20260902165655 23 338 1.6 3.2 0.00 0.00 0.00
20260902165253 23 338 1.6 4.8 0.00 0.00 0.00
20260902164851 23 338 1.6 3.2 0.00 0.00 0.00
20260902164450 23 338 3.2 6.4 0.00 0.00 0.00
20260902164048 23 338 1.6 4.8 0.00 0.00 0.00
20260902163647 23 338 1.6 3.2 0.00 0.00 0.00